Flag Weather past 2 weeks in Alicante, Spain

Now
70 °F

Passing clouds.


Feels Like: 70 °F
Forecast: 55 / 67 °F
Wind: 7 mph from South

Location: Alicante / El Altet

Current Time: Nov 26, 2014 at 3:13:10 PM

Latest Report: Nov 26, 2014 at 2:30 PM


Visibility: N/A

Pressure: 29.86 "Hg

Humidity: 60%

Dew point: 55 °F

Location of AlicanteLocation

Historic Weather in Alicante — Graph

°F

Alicante temperature yesterday

Maximum temperature yesterday: 70 °F (at 1:00 PM)
Minimum temperature yesterday: 57 °F (at 2:00 AM)
Average temperature yesterday: 63 °F

Past Weeks' High & Low Weather Summary

 TemperatureHumidityPressure
High73 °F (Nov 24, 12:00 PM)100% (Nov 14, 12:00 AM)30.09 "Hg (Nov 14, 12:00 AM)
Low45 °F (Nov 18, 6:00 AM)32% (Nov 15, 3:00 PM)29.65 "Hg (Nov 11, 4:00 PM)
Average61 °F73%29.94 "Hg
* Reported Nov 11 2:00 PM — Nov 26 2:00 PM, Alicante, Weather by CustomWeather, © 2014

Note: Actual official high and low records may vary slightly from our data, if they occured in-between our weather recording intervals... More about our weather records

Advertising

Alicante weather history for previous 24 hours

 ConditionsComfort  
Time TempWeatherWind HumidityBarometerVisibility
2:00 PM
Nov 26
68 °FPassing clouds.8 mph64%29.86 "HgN/A
1:30 PM68 °FPassing clouds.8 mph64%29.86 "HgN/A
1:00 PM68 °FPassing clouds.8 mph60%29.89 "HgN/A
12:30 PM68 °FPassing clouds.8 mph56%29.89 "HgN/A
12:00 PM68 °FPassing clouds.8 mph56%29.92 "HgN/A
11:30 AM66 °FPassing clouds.10 mph56%29.92 "HgN/A
11:00 AM66 °FPassing clouds.12 mph60%29.92 "HgN/A
10:30 AM63 °FScattered clouds.6 mph73%29.95 "HgN/A
10:00 AM61 °FScattered clouds.6 mph88%29.95 "HgN/A
9:30 AM59 °FScattered clouds.2 mph94%29.95 "HgN/A
8:30 AM55 °FScattered clouds.5 mph100%29.92 "HgN/A
8:00 AM55 °FScattered clouds.6 mph100%29.92 "HgN/A
7:30 AM57 °FPassing clouds.5 mph94%29.92 "HgN/A
7:00 AM57 °FPassing clouds.2 mph94%29.92 "HgN/A
6:30 AM57 °FPassing clouds.6 mph94%29.92 "HgN/A
6:00 AM57 °FPassing clouds.6 mph100%29.92 "HgN/A
5:30 AM57 °FPassing clouds.5 mph100%29.92 "HgN/A
5:00 AM57 °FPassing clouds.2 mph100%29.95 "HgN/A
4:30 AM57 °FPassing clouds.3 mph100%29.95 "HgN/A
4:00 AM59 °FPassing clouds.5 mph94%29.95 "HgN/A
3:30 AM59 °FPassing clouds.7 mph94%29.95 "HgN/A
3:00 AM59 °FPassing clouds.6 mph94%29.95 "HgN/A
2:30 AM59 °FPassing clouds.6 mph94%29.95 "HgN/A
2:00 AM59 °FPassing clouds.8 mph100%29.98 "HgN/A
1:30 AM61 °FLight rain. Passing clouds.7 mph94%29.98 "HgN/A
1:00 AM61 °FLight rain. Passing clouds.3 mph94%29.98 "HgN/A
12:30 AM63 °FPassing clouds.9 mph88%30.01 "HgN/A
12:00 AM63 °FPassing clouds.5 mph94%30.01 "HgN/A
11:30 PM
Nov 25
63 °FPassing clouds.1 mph88%30.01 "HgN/A
11:00 PM63 °FPassing clouds.No wind88%30.01 "HgN/A
10:30 PM63 °FPassing clouds.No wind88%30.01 "HgN/A
10:00 PM63 °FPassing clouds.No wind94%30.01 "HgN/A
9:30 PM63 °FPassing clouds.No wind94%30.01 "HgN/A
9:00 PM63 °FPassing clouds.No wind94%30.01 "HgN/A
8:30 PM63 °FPassing clouds.1 mph94%30.01 "HgN/A
8:00 PM63 °FPassing clouds.2 mph94%30.01 "HgN/A
7:30 PM63 °FPassing clouds.2 mph94%30.01 "HgN/A
7:00 PM63 °FPassing clouds.No wind94%30.01 "HgN/A
6:30 PM64 °FPassing clouds.No wind88%30.01 "HgN/A
6:00 PM64 °FPassing clouds.1 mph88%30.01 "HgN/A
5:30 PM64 °FPassing clouds.5 mph88%30.01 "HgN/A
5:00 PM66 °FScattered clouds.7 mph83%30.01 "HgN/A
4:30 PM66 °FScattered clouds.6 mph83%29.98 "HgN/A
4:00 PM68 °FScattered clouds.6 mph78%29.98 "HgN/A
3:30 PM68 °FPassing clouds.8 mph78%30.01 "HgN/A
3:00 PM70 °FPassing clouds.6 mph69%30.01 "HgN/A
Weather by CustomWeather, © 2014

See weather overviewHow to use our weather pages